Regional Weather Roundup
Issued by NWS Cleveland, OH

Home | Current Version | Previous Version | Text Only | Print | Product List | Glossary Off
Versions: 1 2 3 4 5 6 7 8 9 10 11 12 13 14 15 16 17 18 19 20 21 22 23 24 25 26 27 28 29 30 31 32 33 34 35 36 37 38 39 40 41 42 43 44 45 46 47 48 49 50

785
ASUS41 KCLE 240212
RWRCLE
OHIO REGIONAL WEATHER ROUNDUP
NATIONAL WEATHER SERVICE WILMINGTON, OH
1000 PM EDT SAT JUL 23 2016

NOTE: "FAIR" INDICATES FEW OR NO CLOUDS BELOW 12,000 FEET WITH NO
SIGNIFICANT WEATHER AND/OR OBSTRUCTIONS TO VISIBILITY.

OHZ001>008-015>018-024>027-034-035-043-044-240300-
   NORTHWEST OHIO

CITY           SKY/WX    TMP DP  RH WIND       PRES   REMARKS
DEFIANCE       FAIR      80  71  74 CALM      29.97R
FINDLAY        FAIR      82  69  64 CALM      29.98R
TOLEDO EXPRESS FAIR      80  74  81 CALM      29.97R
TOLEDO EXEC    FAIR      82  68  62 CALM      29.97R
LIMA           FAIR      80  74  81 S3        30.00R
$$

OHZ009>014-019>023-028>033-038-089-240300-
   NORTHEAST OHIO

CITY           SKY/WX    TMP DP  RH WIND       PRES   REMARKS
CLE-HOPKINS    FAIR      83  64  52 N3        30.01R
CLE-LAKEFRONT  FAIR      80  71  74 NE7       29.98R
CUY CO. ARPT   PTCLDY    79  63  57 E5        30.00R
LORAIN-ELYRIA  FAIR      74  65  73 CALM      30.00R
ASHTABULA      FAIR      71  65  81 CALM      30.01R
AKRON-CANTON   FAIR      79  62  56 NE6       30.01R
WOOSTER        FAIR      74  67  78 N5        30.01R
MANSFIELD      FAIR      80  69  69 CALM      30.02R
YOUNGSTOWN     FAIR      73  62  68 NE5       30.01R
$$

OHZ042-051>053-060>062-070>072-077>081-240300-
  SOUTHWEST OHIO

CITY           SKY/WX    TMP DP  RH WIND       PRES   REMARKS
CINC-COVINGTON FAIR      85  73  67 N5        30.00R HX  91
CINC-LUNKEN    FAIR      79  75  87 VRB3      29.98R
HAMILTON       FAIR      78  72  81 CALM      29.99R
DAYTON         FAIR      80  73  79 W5        30.02R
WRIGHT-PAT AFB FAIR      81  75  80 NE1       29.99R
DAYTON GENERAL FAIR      81  71  71 CALM      30.00R
WILMINGTON     MOCLDY    81  75  82 CALM      30.01R
$$

OHZ036-037-039>041-045>050-054>059-063>069-073>076-082>088-240300-
  CENTRAL AND SOUTHEAST OHIO

CITY           SKY/WX    TMP DP  RH WIND       PRES   REMARKS
COLUMBUS       FAIR      83  71  67 CALM      29.99R
OSU AIRPORT    FAIR      83  71  67 SW3       29.99R
BOLTON FIELD   FAIR      78  74  86 CALM      30.00R
RICKENBACK AFB FAIR      81  74  79 W3        29.99R
NEWARK         FAIR      78  75  90 CALM      29.99R
MARION         FAIR      81  71  71 SW3       30.00R
LANCASTER      FAIR      76  75  97 CALM      30.00R
ZANESVILLE     FAIR      83  72  69 W3        29.99R
NEW PHILLY     FAIR      80  74  81 CALM      29.99R
$$




USA.gov is the U.S. government's official web portal to all federal, state and local government web resources and services.